owner,sensor,date,latitude,longitude,vertical_datum,wind_speed,wind_to_direction,wind_speed_of_gust,qcFlag 
DISL,ioos:station:DISL:MBLA:1,2007-06-01T00:00:00Z,30.4367,-88.0117,14.2,6.9,107.0,99.0,'11111222,11111222,11144222' 
DISL,ioos:station:DISL:MBLA:1,2007-06-01T00:30:00Z,30.4367,-88.0117,14.2,7.5,124.0,99.0,'11111222,11111222,11144222' 
DISL,ioos:station:DISL:MBLA:1,2007-06-01T01:00:00Z,30.4367,-88.0117,14.2,7.9,114.0,99.0,'11111222,11111222,11144222' 
DISL,ioos:station:DISL:MBLA:1,2007-06-01T01:30:00Z,30.4367,-88.0117,14.2,5.5,106.0,99.0,'11111222,11111222,11144222' 
DISL,ioos:station:DISL:MBLA:1,2007-06-01T02:00:00Z,30.4367,-88.0117,14.2,7.3,120.0,99.0,'11111222,11111222,11144222' 
DISL,ioos:station:DISL:MBLA:1,2007-06-01T02:30:00Z,30.4367,-88.0117,14.2,8.1,127.0,99.0,'11111222,11111222,11144222' 
DISL,ioos:station:DISL:MBLA:1,2007-06-01T03:00:00Z,30.4367,-88.0117,14.2,7.0,120.0,99.0,'11111222,11111222,11144222' 
DISL,ioos:station:DISL:MBLA:1,2007-06-01T03:30:00Z,30.4367,-88.0117,14.2,6.4,122.0,99.0,'11111222,11111222,11144222' 
DISL,ioos:station:DISL:MBLA:1,2007-06-01T04:00:00Z,30.4367,-88.0117,14.2,6.2,118.0,99.0,'11111222,11111222,11144222' 
DISL,ioos:station:DISL:MBLA:1,2007-06-01T04:30:00Z,30.4367,-88.0117,14.2,6.5,120.0,99.0,'11111222,11111222,11144222' 
DISL,ioos:station:DISL:MBLA:1,2007-06-01T05:00:00Z,30.4367,-88.0117,14.2,3.9,134.0,99.0,'11111222,11111222,11144222' 
DISL,ioos:station:DISL:MBLA:1,2007-06-01T05:30:00Z,30.4367,-88.0117,14.2,5.5,158.0,99.0,'11111222,11111222,11144222' 
DISL,ioos:station:DISL:MBLA:1,2007-06-01T06:00:00Z,30.4367,-88.0117,14.2,4.3,162.0,99.0,'11111222,11111222,11144222' 
DISL,ioos:station:DISL:MBLA:1,2007-06-01T06:30:00Z,30.4367,-88.0117,14.2,4.0,90.0,99.0,'11111222,11111222,11144222' 
DISL,ioos:station:DISL:MBLA:1,2007-06-01T07:00:00Z,30.4367,-88.0117,14.2,4.0,82.0,99.0,'11111222,11111222,11144222' 
DISL,ioos:station:DISL:MBLA:1,2007-06-01T07:30:00Z,30.4367,-88.0117,14.2,4.1,78.0,99.0,'11111222,11111222,11144222' 
DISL,ioos:station:DISL:MBLA:1,2007-06-01T08:00:00Z,30.4367,-88.0117,14.2,4.5,71.0,99.0,'11111222,11111222,11144222' 
DISL,ioos:station:DISL:MBLA:1,2007-06-01T08:30:00Z,30.4367,-88.0117,14.2,4.6,63.0,99.0,'11111222,11111222,11144222' 
DISL,ioos:station:DISL:MBLA:1,2007-06-01T09:00:00Z,30.4367,-88.0117,14.2,4.2,54.0,99.0,'11111222,11111222,11144222' 
DISL,ioos:station:DISL:MBLA:1,2007-06-01T09:30:00Z,30.4367,-88.0117,14.2,5.0,62.0,99.0,'11111222,11111222,11144222' 
DISL,ioos:station:DISL:MBLA:1,2007-06-01T10:00:00Z,30.4367,-88.0117,14.2,5.0,73.0,99.0,'11111222,11111222,11144222' 
DISL,ioos:station:DISL:MBLA:1,2007-06-01T10:30:00Z,30.4367,-88.0117,14.2,5.9,89.0,99.0,'11111222,11111222,11144222' 
DISL,ioos:station:DISL:MBLA:1,2007-06-01T11:00:00Z,30.4367,-88.0117,14.2,5.9,96.0,99.0,'11111222,11111222,11144222' 
DISL,ioos:station:DISL:MBLA:1,2007-06-01T11:30:00Z,30.4367,-88.0117,14.2,5.5,88.0,99.0,'11111222,11111222,11144222' 
DISL,ioos:station:DISL:MBLA:1,2007-06-01T12:00:00Z,30.4367,-88.0117,14.2,5.4,103.0,99.0,'11111222,11111222,11144222' 
DISL,ioos:station:DISL:MBLA:1,2007-06-01T12:30:00Z,30.4367,-88.0117,14.2,4.8,96.0,99.0,'11111222,11111222,11144222' 
DISL,ioos:station:DISL:MBLA:1,2007-06-01T13:00:00Z,30.4367,-88.0117,14.2,3.8,91.0,99.0,'11111222,11111222,11144222' 
DISL,ioos:station:DISL:MBLA:1,2007-06-01T13:30:00Z,30.4367,-88.0117,14.2,1.8,53.0,99.0,'11111222,11111222,11144222' 
DISL,ioos:station:DISL:MBLA:1,2007-06-01T14:00:00Z,30.4367,-88.0117,14.2,3.3,26.0,99.0,'11111222,11111222,11144222' 
DISL,ioos:station:DISL:MBLA:1,2007-06-01T14:30:00Z,30.4367,-88.0117,14.2,3.1,52.0,99.0,'11111222,11111222,11144222' 
DISL,ioos:station:DISL:MBLA:1,2007-06-01T15:00:00Z,30.4367,-88.0117,14.2,2.5,30.0,99.0,'11111222,11111222,11144222' 
DISL,ioos:station:DISL:MBLA:1,2007-06-01T15:30:00Z,30.4367,-88.0117,14.2,1.9,8.0,99.0,'11111222,11111222,11144222' 
DISL,ioos:station:DISL:MBLA:1,2007-06-01T16:00:00Z,30.4367,-88.0117,14.2,1.6,38.0,99.0,'11111222,11111222,11144222' 
DISL,ioos:station:DISL:MBLA:1,2007-06-01T16:30:00Z,30.4367,-88.0117,14.2,1.2,346.0,99.0,'11111222,11111222,11144222' 
DISL,ioos:station:DISL:MBLA:1,2007-06-01T17:00:00Z,30.4367,-88.0117,14.2,0.1,278.0,99.0,'11111222,11111222,11144222' 
DISL,ioos:station:DISL:MBLA:1,2007-06-01T17:30:00Z,30.4367,-88.0117,14.2,0.8,290.0,99.0,'11111222,11111222,11144222' 
DISL,ioos:station:DISL:MBLA:1,2007-06-01T18:00:00Z,30.4367,-88.0117,14.2,2.2,190.0,99.0,'11111222,11111222,11144222' 
DISL,ioos:station:DISL:MBLA:1,2007-06-01T18:30:00Z,30.4367,-88.0117,14.2,6.2,148.0,99.0,'11111222,11111222,11144222' 
DISL,ioos:station:DISL:MBLA:1,2007-06-01T19:00:00Z,30.4367,-88.0117,14.2,10.6,150.0,99.0,'11111222,11111222,11144222' 
DISL,ioos:station:DISL:MBLA:1,2007-06-01T19:30:00Z,30.4367,-88.0117,14.2,10.6,150.0,99.0,'11111222,11111222,11144222' 
DISL,ioos:station:DISL:MBLA:1,2007-06-01T20:00:00Z,30.4367,-88.0117,14.2,10.7,150.0,99.0,'11111222,11111222,11144222' 
DISL,ioos:station:DISL:MBLA:1,2007-06-01T20:30:00Z,30.4367,-88.0117,14.2,10.2,153.0,99.0,'11111222,11111222,11144222' 
DISL,ioos:station:DISL:MBLA:1,2007-06-01T21:00:00Z,30.4367,-88.0117,14.2,9.9,151.0,99.0,'11111222,11111222,11144222' 
DISL,ioos:station:DISL:MBLA:1,2007-06-01T21:30:00Z,30.4367,-88.0117,14.2,9.9,151.0,99.0,'11111222,11111222,11144222' 
DISL,ioos:station:DISL:MBLA:1,2007-06-01T22:00:00Z,30.4367,-88.0117,14.2,10.7,149.0,99.0,'11111222,11111222,11144222' 
DISL,ioos:station:DISL:MBLA:1,2007-06-01T22:30:00Z,30.4367,-88.0117,14.2,9.5,148.0,99.0,'11111222,11111222,11144222' 
DISL,ioos:station:DISL:MBLA:1,2007-06-01T23:00:00Z,30.4367,-88.0117,14.2,7.5,151.0,99.0,'11111222,11111222,11144222' 
DISL,ioos:station:DISL:MBLA:1,2007-06-01T23:30:00Z,30.4367,-88.0117,14.2,7.6,147.0,99.0,'11111222,11111222,11144222' 
DISL,ioos:station:DISL:MBLA:1,2007-06-02T00:00:00Z,30.4367,-88.0117,14.2,7.6,141.0,99.0,'11111222,11111222,11144222' 
DISL,ioos:station:DISL:MBLA:1,2007-06-02T00:30:00Z,30.4367,-88.0117,14.2,7.1,141.0,99.0,'11111222,11111222,11144222' 
DISL,ioos:station:DISL:MBLA:1,2007-06-02T01:00:00Z,30.4367,-88.0117,14.2,6.9,139.0,99.0,'11111222,11111222,11144222' 
DISL,ioos:station:DISL:MBLA:1,2007-06-02T01:30:00Z,30.4367,-88.0117,14.2,7.2,140.0,99.0,'11111222,11111222,11144222' 
DISL,ioos:station:DISL:MBLA:1,2007-06-02T02:00:00Z,30.4367,-88.0117,14.2,6.8,142.0,99.0,'11111222,11111222,11144222' 
DISL,ioos:station:DISL:MBLA:1,2007-06-02T02:30:00Z,30.4367,-88.0117,14.2,6.5,132.0,99.0,'11111222,11111222,11144222' 
DISL,ioos:station:DISL:MBLA:1,2007-06-02T03:00:00Z,30.4367,-88.0117,14.2,6.3,132.0,99.0,'11111222,11111222,11144222' 
DISL,ioos:station:DISL:MBLA:1,2007-06-02T03:30:00Z,30.4367,-88.0117,14.2,4.6,110.0,99.0,'11111222,11111222,11144222' 
DISL,ioos:station:DISL:MBLA:1,2007-06-02T04:00:00Z,30.4367,-88.0117,14.2,3.7,121.0,99.0,'11111222,11111222,11144222' 
DISL,ioos:station:DISL:MBLA:1,2007-06-02T04:30:00Z,30.4367,-88.0117,14.2,2.4,113.0,99.0,'11111222,11111222,11144222' 
DISL,ioos:station:DISL:MBLA:1,2007-06-02T05:00:00Z,30.4367,-88.0117,14.2,2.6,103.0,99.0,'11111222,11111222,11144222' 
DISL,ioos:station:DISL:MBLA:1,2007-06-02T05:30:00Z,30.4367,-88.0117,14.2,2.5,98.0,99.0,'11111222,11111222,11144222' 
DISL,ioos:station:DISL:MBLA:1,2007-06-02T06:00:00Z,30.4367,-88.0117,14.2,2.4,94.0,99.0,'11111222,11111222,11144222' 
DISL,ioos:station:DISL:MBLA:1,2007-06-02T06:30:00Z,30.4367,-88.0117,14.2,1.5,76.0,99.0,'11111222,11111222,11144222' 
DISL,ioos:station:DISL:MBLA:1,2007-06-02T07:00:00Z,30.4367,-88.0117,14.2,1.3,8.0,99.0,'11111222,11111222,11144222' 
DISL,ioos:station:DISL:MBLA:1,2007-06-02T07:30:00Z,30.4367,-88.0117,14.2,0.9,355.0,99.0,'11111222,11111222,11144222' 
DISL,ioos:station:DISL:MBLA:1,2007-06-02T08:00:00Z,30.4367,-88.0117,14.2,3.1,341.0,99.0,'11111222,11111222,11144222' 
DISL,ioos:station:DISL:MBLA:1,2007-06-02T08:30:00Z,30.4367,-88.0117,14.2,4.3,350.0,99.0,'11111222,11111222,11144222' 
DISL,ioos:station:DISL:MBLA:1,2007-06-02T09:00:00Z,30.4367,-88.0117,14.2,4.9,3.0,99.0,'11111222,11111222,11144222' 
DISL,ioos:station:DISL:MBLA:1,2007-06-02T09:30:00Z,30.4367,-88.0117,14.2,6.5,350.0,99.0,'11111222,11111222,11144222' 
DISL,ioos:station:DISL:MBLA:1,2007-06-02T10:00:00Z,30.4367,-88.0117,14.2,7.0,5.0,99.0,'11111222,11111222,11144222' 
DISL,ioos:station:DISL:MBLA:1,2007-06-02T10:30:00Z,30.4367,-88.0117,14.2,6.9,359.0,99.0,'11111222,11111222,11144222' 
DISL,ioos:station:DISL:MBLA:1,2007-06-02T11:00:00Z,30.4367,-88.0117,14.2,7.1,360.0,99.0,'11111222,11144222,11144222' 
DISL,ioos:station:DISL:MBLA:1,2007-06-02T11:30:00Z,30.4367,-88.0117,14.2,7.2,356.0,99.0,'11111222,11111222,11144222' 
DISL,ioos:station:DISL:MBLA:1,2007-06-02T12:00:00Z,30.4367,-88.0117,14.2,6.9,357.0,99.0,'11111222,11111222,11144222' 
DISL,ioos:station:DISL:MBLA:1,2007-06-02T12:30:00Z,30.4367,-88.0117,14.2,6.5,353.0,99.0,'11111222,11111222,11144222' 
DISL,ioos:station:DISL:MBLA:1,2007-06-02T13:00:00Z,30.4367,-88.0117,14.2,7.5,10.0,99.0,'11111222,11111222,11144222' 
DISL,ioos:station:DISL:MBLA:1,2007-06-02T13:30:00Z,30.4367,-88.0117,14.2,7.4,3.0,99.0,'11111222,11111222,11144222' 
DISL,ioos:station:DISL:MBLA:1,2007-06-02T14:00:00Z,30.4367,-88.0117,14.2,6.5,4.0,99.0,'11111222,11111222,11144222' 
DISL,ioos:station:DISL:MBLA:1,2007-06-02T14:30:00Z,30.4367,-88.0117,14.2,6.3,357.0,99.0,'11111222,11111222,11144222' 
DISL,ioos:station:DISL:MBLA:1,2007-06-02T15:00:00Z,30.4367,-88.0117,14.2,6.5,1.0,99.0,'11111222,11111222,11144222' 
DISL,ioos:station:DISL:MBLA:1,2007-06-02T15:30:00Z,30.4367,-88.0117,14.2,6.4,13.0,99.0,'11111222,11111222,11144222' 
DISL,ioos:station:DISL:MBLA:1,2007-06-02T16:00:00Z,30.4367,-88.0117,14.2,6.9,9.0,99.0,'11111222,11111222,11144222' 
DISL,ioos:station:DISL:MBLA:1,2007-06-02T16:30:00Z,30.4367,-88.0117,14.2,5.9,4.0,99.0,'11111222,11111222,11144222' 
DISL,ioos:station:DISL:MBLA:1,2007-06-02T17:00:00Z,30.4367,-88.0117,14.2,5.8,356.0,99.0,'11111222,11111222,11144222' 
DISL,ioos:station:DISL:MBLA:1,2007-06-02T17:30:00Z,30.4367,-88.0117,14.2,5.6,3.0,99.0,'11111222,11111222,11144222' 
DISL,ioos:station:DISL:MBLA:1,2007-06-02T18:00:00Z,30.4367,-88.0117,14.2,6.2,4.0,99.0,'11111222,11111222,11144222' 
DISL,ioos:station:DISL:MBLA:1,2007-06-02T18:30:00Z,30.4367,-88.0117,14.2,6.6,0.0,99.0,'11111222,11111222,11144222' 
DISL,ioos:station:DISL:MBLA:1,2007-06-02T19:00:00Z,30.4367,-88.0117,14.2,5.9,2.0,99.0,'11111222,11111222,11144222' 
DISL,ioos:station:DISL:MBLA:1,2007-06-02T19:30:00Z,30.4367,-88.0117,14.2,5.2,5.0,99.0,'11111222,11111222,11144222' 
DISL,ioos:station:DISL:MBLA:1,2007-06-02T20:00:00Z,30.4367,-88.0117,14.2,4.6,0.0,99.0,'11111222,11111222,11144222' 
DISL,ioos:station:DISL:MBLA:1,2007-06-02T20:30:00Z,30.4367,-88.0117,14.2,3.1,346.0,99.0,'11111222,11111222,11144222' 
DISL,ioos:station:DISL:MBLA:1,2007-06-02T21:00:00Z,30.4367,-88.0117,14.2,2.0,340.0,99.0,'11111222,11111222,11144222' 
DISL,ioos:station:DISL:MBLA:1,2007-06-02T21:30:00Z,30.4367,-88.0117,14.2,2.8,223.0,99.0,'11111222,11111222,11144222' 
DISL,ioos:station:DISL:MBLA:1,2007-06-02T22:00:00Z,30.4367,-88.0117,14.2,4.7,225.0,99.0,'11111222,11111222,11144222' 
DISL,ioos:station:DISL:MBLA:1,2007-06-02T22:30:00Z,30.4367,-88.0117,14.2,7.8,225.0,99.0,'11111222,11111222,11144222' 
DISL,ioos:station:DISL:MBLA:1,2007-06-02T23:00:00Z,30.4367,-88.0117,14.2,8.0,235.0,99.0,'11111222,11111222,11144222' 
DISL,ioos:station:DISL:MBLA:1,2007-06-02T23:30:00Z,30.4367,-88.0117,14.2,8.3,237.0,99.0,'11111222,11111222,11144222' 
DISL,ioos:station:DISL:MBLA:1,2007-06-03T00:00:00Z,30.4367,-88.0117,14.2,7.2,249.0,99.0,'11111222,11111222,11144222' 
DISL,ioos:station:DISL:MBLA:1,2007-06-03T00:30:00Z,30.4367,-88.0117,14.2,7.0,257.0,99.0,'11111222,11111222,11144222' 
DISL,ioos:station:DISL:MBLA:1,2007-06-03T01:00:00Z,30.4367,-88.0117,14.2,8.2,265.0,99.0,'11111222,11111222,11144222' 
DISL,ioos:station:DISL:MBLA:1,2007-06-03T01:30:00Z,30.4367,-88.0117,14.2,8.6,276.0,99.0,'11111222,11111222,11144222' 
DISL,ioos:station:DISL:MBLA:1,2007-06-03T02:00:00Z,30.4367,-88.0117,14.2,7.9,275.0,99.0,'11111222,11111222,11144222' 
DISL,ioos:station:DISL:MBLA:1,2007-06-03T02:30:00Z,30.4367,-88.0117,14.2,7.8,272.0,99.0,'11111222,11111222,11144222' 
DISL,ioos:station:DISL:MBLA:1,2007-06-03T03:00:00Z,30.4367,-88.0117,14.2,7.9,280.0,99.0,'11111222,11111222,11144222' 
DISL,ioos:station:DISL:MBLA:1,2007-06-03T03:30:00Z,30.4367,-88.0117,14.2,7.3,293.0,99.0,'11111222,11111222,11144222' 
DISL,ioos:station:DISL:MBLA:1,2007-06-03T04:00:00Z,30.4367,-88.0117,14.2,7.4,304.0,99.0,'11111222,11111222,11144222' 
DISL,ioos:station:DISL:MBLA:1,2007-06-03T04:30:00Z,30.4367,-88.0117,14.2,7.2,308.0,99.0,'11111222,11111222,11144222' 
DISL,ioos:station:DISL:MBLA:1,2007-06-03T05:00:00Z,30.4367,-88.0117,14.2,7.5,304.0,99.0,'11111222,11111222,11144222' 
DISL,ioos:station:DISL:MBLA:1,2007-06-03T05:30:00Z,30.4367,-88.0117,14.2,8.7,298.0,99.0,'11111222,11111222,11144222' 
DISL,ioos:station:DISL:MBLA:1,2007-06-03T06:00:00Z,30.4367,-88.0117,14.2,8.8,298.0,99.0,'11111222,11111222,11144222' 
DISL,ioos:station:DISL:MBLA:1,2007-06-03T06:30:00Z,30.4367,-88.0117,14.2,8.4,305.0,99.0,'11111222,11111222,11144222' 
DISL,ioos:station:DISL:MBLA:1,2007-06-03T07:00:00Z,30.4367,-88.0117,14.2,6.1,338.0,99.0,'11111222,11111222,11144222' 
DISL,ioos:station:DISL:MBLA:1,2007-06-03T07:30:00Z,30.4367,-88.0117,14.2,5.9,334.0,99.0,'11111222,11111222,11144222' 
DISL,ioos:station:DISL:MBLA:1,2007-06-03T08:00:00Z,30.4367,-88.0117,14.2,6.1,341.0,99.0,'11111222,11111222,11144222' 
DISL,ioos:station:DISL:MBLA:1,2007-06-03T08:30:00Z,30.4367,-88.0117,14.2,5.5,338.0,99.0,'11111222,11111222,11144222' 
DISL,ioos:station:DISL:MBLA:1,2007-06-03T09:00:00Z,30.4367,-88.0117,14.2,4.1,332.0,99.0,'11111222,11111222,11144222' 
DISL,ioos:station:DISL:MBLA:1,2007-06-03T09:30:00Z,30.4367,-88.0117,14.2,6.0,299.0,99.0,'11111222,11111222,11144222' 
DISL,ioos:station:DISL:MBLA:1,2007-06-03T10:00:00Z,30.4367,-88.0117,14.2,5.9,316.0,99.0,'11111222,11111222,11144222' 
DISL,ioos:station:DISL:MBLA:1,2007-06-03T10:30:00Z,30.4367,-88.0117,14.2,5.3,324.0,99.0,'11111222,11111222,11144222' 
DISL,ioos:station:DISL:MBLA:1,2007-06-03T11:00:00Z,30.4367,-88.0117,14.2,4.6,310.0,99.0,'11111222,11111222,11144222' 
DISL,ioos:station:DISL:MBLA:1,2007-06-03T11:30:00Z,30.4367,-88.0117,14.2,5.4,305.0,99.0,'11111222,11111222,11144222' 
DISL,ioos:station:DISL:MBLA:1,2007-06-03T12:00:00Z,30.4367,-88.0117,14.2,5.9,306.0,99.0,'11111222,11111222,11144222' 
DISL,ioos:station:DISL:MBLA:1,2007-06-03T12:30:00Z,30.4367,-88.0117,14.2,5.8,310.0,99.0,'11111222,11111222,11144222' 
DISL,ioos:station:DISL:MBLA:1,2007-06-03T13:00:00Z,30.4367,-88.0117,14.2,6.7,300.0,99.0,'11111222,11111222,11144222' 
DISL,ioos:station:DISL:MBLA:1,2007-06-03T13:30:00Z,30.4367,-88.0117,14.2,5.9,295.0,99.0,'11111222,11111222,11144222' 
DISL,ioos:station:DISL:MBLA:1,2007-06-03T14:00:00Z,30.4367,-88.0117,14.2,5.5,301.0,99.0,'11111222,11111222,11144222' 
DISL,ioos:station:DISL:MBLA:1,2007-06-03T14:30:00Z,30.4367,-88.0117,14.2,3.8,303.0,99.0,'11111222,11111222,11144222' 
DISL,ioos:station:DISL:MBLA:1,2007-06-03T15:00:00Z,30.4367,-88.0117,14.2,4.8,301.0,99.0,'11111222,11111222,11144222' 
DISL,ioos:station:DISL:MBLA:1,2007-06-03T15:30:00Z,30.4367,-88.0117,14.2,6.7,302.0,99.0,'11111222,11111222,11144222' 
DISL,ioos:station:DISL:MBLA:1,2007-06-03T16:00:00Z,30.4367,-88.0117,14.2,4.4,289.0,99.0,'11111222,11111222,11144222' 
DISL,ioos:station:DISL:MBLA:1,2007-06-03T16:30:00Z,30.4367,-88.0117,14.2,4.5,294.0,99.0,'11111222,11111222,11144222' 
DISL,ioos:station:DISL:MBLA:1,2007-06-03T17:00:00Z,30.4367,-88.0117,14.2,5.3,280.0,99.0,'11111222,11111222,11144222' 
DISL,ioos:station:DISL:MBLA:1,2007-06-03T17:30:00Z,30.4367,-88.0117,14.2,8.7,221.0,99.0,'11111222,11111222,11144222' 
DISL,ioos:station:DISL:MBLA:1,2007-06-03T18:00:00Z,30.4367,-88.0117,14.2,10.2,221.0,99.0,'11111222,11111222,11144222' 
DISL,ioos:station:DISL:MBLA:1,2007-06-03T18:30:00Z,30.4367,-88.0117,14.2,9.5,234.0,99.0,'11111222,11111222,11144222' 
DISL,ioos:station:DISL:MBLA:1,2007-06-03T19:00:00Z,30.4367,-88.0117,14.2,10.3,238.0,99.0,'11111222,11111222,11144222' 
DISL,ioos:station:DISL:MBLA:1,2007-06-03T19:30:00Z,30.4367,-88.0117,14.2,9.0,232.0,99.0,'11111222,11111222,11144222' 
DISL,ioos:station:DISL:MBLA:1,2007-06-03T20:00:00Z,30.4367,-88.0117,14.2,10.7,240.0,99.0,'11111222,11111222,11144222' 
DISL,ioos:station:DISL:MBLA:1,2007-06-03T20:30:00Z,30.4367,-88.0117,14.2,11.9,238.0,99.0,'11111222,11111222,11144222' 
DISL,ioos:station:DISL:MBLA:1,2007-06-03T21:00:00Z,30.4367,-88.0117,14.2,10.6,240.0,99.0,'11111222,11111222,11144222' 
DISL,ioos:station:DISL:MBLA:1,2007-06-03T21:30:00Z,30.4367,-88.0117,14.2,11.2,241.0,99.0,'11111222,11111222,11144222' 
DISL,ioos:station:DISL:MBLA:1,2007-06-03T22:00:00Z,30.4367,-88.0117,14.2,10.0,243.0,99.0,'11111222,11111222,11144222' 
DISL,ioos:station:DISL:MBLA:1,2007-06-03T22:30:00Z,30.4367,-88.0117,14.2,10.6,238.0,99.0,'11111222,11111222,11144222' 
DISL,ioos:station:DISL:MBLA:1,2007-06-03T23:00:00Z,30.4367,-88.0117,14.2,8.9,245.0,99.0,'11111222,11111222,11144222' 
DISL,ioos:station:DISL:MBLA:1,2007-06-03T23:30:00Z,30.4367,-88.0117,14.2,9.2,245.0,99.0,'11111222,11111222,11144222' 
DISL,ioos:station:DISL:MBLA:1,2007-06-04T00:00:00Z,30.4367,-88.0117,14.2,8.9,245.0,99.0,'11111222,11111222,11144222' 
DISL,ioos:station:DISL:MBLA:1,2007-06-04T00:30:00Z,30.4367,-88.0117,14.2,8.4,244.0,99.0,'11111222,11111222,11144222' 
DISL,ioos:station:DISL:MBLA:1,2007-06-04T01:00:00Z,30.4367,-88.0117,14.2,7.6,246.0,99.0,'11111222,11111222,11144222' 
DISL,ioos:station:DISL:MBLA:1,2007-06-04T01:30:00Z,30.4367,-88.0117,14.2,6.4,245.0,99.0,'11111222,11111222,11144222' 
DISL,ioos:station:DISL:MBLA:1,2007-06-04T02:00:00Z,30.4367,-88.0117,14.2,9.3,235.0,99.0,'11111222,11111222,11144222' 
DISL,ioos:station:DISL:MBLA:1,2007-06-04T02:30:00Z,30.4367,-88.0117,14.2,10.0,234.0,99.0,'11111222,11111222,11144222' 
DISL,ioos:station:DISL:MBLA:1,2007-06-04T03:00:00Z,30.4367,-88.0117,14.2,9.5,239.0,99.0,'11111222,11111222,11144222' 
DISL,ioos:station:DISL:MBLA:1,2007-06-04T03:30:00Z,30.4367,-88.0117,14.2,9.0,245.0,99.0,'11111222,11111222,11144222' 
DISL,ioos:station:DISL:MBLA:1,2007-06-04T04:00:00Z,30.4367,-88.0117,14.2,4.8,153.0,99.0,'11111222,11111222,11144222' 
DISL,ioos:station:DISL:MBLA:1,2007-06-04T04:30:00Z,30.4367,-88.0117,14.2,2.9,271.0,99.0,'11111222,11111222,11144222' 
DISL,ioos:station:DISL:MBLA:1,2007-06-04T05:00:00Z,30.4367,-88.0117,14.2,5.8,220.0,99.0,'11111222,11111222,11144222' 
DISL,ioos:station:DISL:MBLA:1,2007-06-04T05:30:00Z,30.4367,-88.0117,14.2,5.7,241.0,99.0,'11111222,11111222,11144222' 
DISL,ioos:station:DISL:MBLA:1,2007-06-04T06:00:00Z,30.4367,-88.0117,14.2,5.3,253.0,99.0,'11111222,11111222,11144222' 
DISL,ioos:station:DISL:MBLA:1,2007-06-04T06:30:00Z,30.4367,-88.0117,14.2,5.9,287.0,99.0,'11111222,11111222,11144222' 
DISL,ioos:station:DISL:MBLA:1,2007-06-04T07:00:00Z,30.4367,-88.0117,14.2,7.0,272.0,99.0,'11111222,11111222,11144222' 
DISL,ioos:station:DISL:MBLA:1,2007-06-04T07:30:00Z,30.4367,-88.0117,14.2,7.2,267.0,99.0,'11111222,11111222,11144222' 
DISL,ioos:station:DISL:MBLA:1,2007-06-04T08:00:00Z,30.4367,-88.0117,14.2,8.4,261.0,99.0,'11111222,11111222,11144222' 
DISL,ioos:station:DISL:MBLA:1,2007-06-04T08:30:00Z,30.4367,-88.0117,14.2,9.3,264.0,99.0,'11111222,11111222,11144222' 
DISL,ioos:station:DISL:MBLA:1,2007-06-04T09:00:00Z,30.4367,-88.0117,14.2,9.1,275.0,99.0,'11111222,11111222,11144222' 
DISL,ioos:station:DISL:MBLA:1,2007-06-04T09:30:00Z,30.4367,-88.0117,14.2,7.4,281.0,99.0,'11111222,11111222,11144222' 
DISL,ioos:station:DISL:MBLA:1,2007-06-04T10:00:00Z,30.4367,-88.0117,14.2,8.5,280.0,99.0,'11111222,11111222,11144222' 
DISL,ioos:station:DISL:MBLA:1,2007-06-04T10:30:00Z,30.4367,-88.0117,14.2,7.1,276.0,99.0,'11111222,11111222,11144222' 
DISL,ioos:station:DISL:MBLA:1,2007-06-04T11:00:00Z,30.4367,-88.0117,14.2,6.6,264.0,99.0,'11111222,11111222,11144222' 
DISL,ioos:station:DISL:MBLA:1,2007-06-04T11:30:00Z,30.4367,-88.0117,14.2,7.2,268.0,99.0,'11111222,11111222,11144222' 
DISL,ioos:station:DISL:MBLA:1,2007-06-04T12:00:00Z,30.4367,-88.0117,14.2,7.6,268.0,99.0,'11111222,11111222,11144222' 
DISL,ioos:station:DISL:MBLA:1,2007-06-04T12:30:00Z,30.4367,-88.0117,14.2,6.2,277.0,99.0,'11111222,11111222,11144222' 
DISL,ioos:station:DISL:MBLA:1,2007-06-04T13:00:00Z,30.4367,-88.0117,14.2,6.4,283.0,99.0,'11111222,11111222,11144222' 
DISL,ioos:station:DISL:MBLA:1,2007-06-04T13:30:00Z,30.4367,-88.0117,14.2,5.3,272.0,99.0,'11111222,11111222,11144222' 
DISL,ioos:station:DISL:MBLA:1,2007-06-04T14:00:00Z,30.4367,-88.0117,14.2,6.3,251.0,99.0,'11111222,11111222,11144222' 
DISL,ioos:station:DISL:MBLA:1,2007-06-04T14:30:00Z,30.4367,-88.0117,14.2,6.0,256.0,99.0,'11111222,11111222,11144222' 
DISL,ioos:station:DISL:MBLA:1,2007-06-04T15:00:00Z,30.4367,-88.0117,14.2,7.3,263.0,99.0,'11111222,11111222,11144222' 
DISL,ioos:station:DISL:MBLA:1,2007-06-04T15:30:00Z,30.4367,-88.0117,14.2,6.5,268.0,99.0,'11111222,11111222,11144222' 
DISL,ioos:station:DISL:MBLA:1,2007-06-04T16:00:00Z,30.4367,-88.0117,14.2,6.8,248.0,99.0,'11111222,11111222,11144222' 
DISL,ioos:station:DISL:MBLA:1,2007-06-04T16:30:00Z,30.4367,-88.0117,14.2,7.7,216.0,99.0,'11111222,11111222,11144222' 
DISL,ioos:station:DISL:MBLA:1,2007-06-04T17:00:00Z,30.4367,-88.0117,14.2,8.1,221.0,99.0,'11111222,11111222,11144222' 
DISL,ioos:station:DISL:MBLA:1,2007-06-04T17:30:00Z,30.4367,-88.0117,14.2,7.1,214.0,99.0,'11111222,11111222,11144222' 
DISL,ioos:station:DISL:MBLA:1,2007-06-04T18:00:00Z,30.4367,-88.0117,14.2,9.0,212.0,99.0,'11111222,11111222,11144222' 
DISL,ioos:station:DISL:MBLA:1,2007-06-04T18:30:00Z,30.4367,-88.0117,14.2,8.7,223.0,99.0,'11111222,11111222,11144222' 
DISL,ioos:station:DISL:MBLA:1,2007-06-04T19:00:00Z,30.4367,-88.0117,14.2,10.2,230.0,99.0,'11111222,11111222,11144222' 
DISL,ioos:station:DISL:MBLA:1,2007-06-04T19:30:00Z,30.4367,-88.0117,14.2,10.0,226.0,99.0,'11111222,11111222,11144222' 
DISL,ioos:station:DISL:MBLA:1,2007-06-04T20:00:00Z,30.4367,-88.0117,14.2,7.3,202.0,99.0,'11111222,11111222,11144222' 
DISL,ioos:station:DISL:MBLA:1,2007-06-04T20:30:00Z,30.4367,-88.0117,14.2,10.5,234.0,99.0,'11111222,11111222,11144222' 
DISL,ioos:station:DISL:MBLA:1,2007-06-04T21:00:00Z,30.4367,-88.0117,14.2,12.9,240.0,99.0,'11111222,11111222,11144222' 
DISL,ioos:station:DISL:MBLA:1,2007-06-04T21:30:00Z,30.4367,-88.0117,14.2,11.7,235.0,99.0,'11111222,11111222,11144222' 
DISL,ioos:station:DISL:MBLA:1,2007-06-04T22:00:00Z,30.4367,-88.0117,14.2,11.6,229.0,99.0,'11111222,11111222,11144222' 
DISL,ioos:station:DISL:MBLA:1,2007-06-04T22:30:00Z,30.4367,-88.0117,14.2,10.3,237.0,99.0,'11111222,11111222,11144222' 
DISL,ioos:station:DISL:MBLA:1,2007-06-04T23:00:00Z,30.4367,-88.0117,14.2,10.4,230.0,99.0,'11111222,11111222,11144222' 
DISL,ioos:station:DISL:MBLA:1,2007-06-04T23:30:00Z,30.4367,-88.0117,14.2,12.2,235.0,99.0,'11111222,11111222,11144222' 
DISL,ioos:station:DISL:MBLA:1,2007-06-05T00:00:00Z,30.4367,-88.0117,14.2,10.8,242.0,99.0,'11111222,11111222,11144222' 
DISL,ioos:station:DISL:MBLA:1,2007-06-05T00:30:00Z,30.4367,-88.0117,14.2,11.3,247.0,99.0,'11111222,11111222,11144222' 
DISL,ioos:station:DISL:MBLA:1,2007-06-05T01:00:00Z,30.4367,-88.0117,14.2,10.9,244.0,99.0,'11111222,11111222,11144222' 
DISL,ioos:station:DISL:MBLA:1,2007-06-05T01:30:00Z,30.4367,-88.0117,14.2,11.6,259.0,99.0,'11111222,11111222,11144222' 
DISL,ioos:station:DISL:MBLA:1,2007-06-05T02:00:00Z,30.4367,-88.0117,14.2,9.2,269.0,99.0,'11111222,11111222,11144222' 
DISL,ioos:station:DISL:MBLA:1,2007-06-05T02:30:00Z,30.4367,-88.0117,14.2,7.4,270.0,99.0,'11111222,11111222,11144222' 
DISL,ioos:station:DISL:MBLA:1,2007-06-05T03:00:00Z,30.4367,-88.0117,14.2,6.4,274.0,99.0,'11111222,11111222,11144222' 
DISL,ioos:station:DISL:MBLA:1,2007-06-05T03:30:00Z,30.4367,-88.0117,14.2,5.1,256.0,99.0,'11111222,11111222,11144222' 
DISL,ioos:station:DISL:MBLA:1,2007-06-05T04:00:00Z,30.4367,-88.0117,14.2,6.1,252.0,99.0,'11111222,11111222,11144222' 
DISL,ioos:station:DISL:MBLA:1,2007-06-05T04:30:00Z,30.4367,-88.0117,14.2,7.1,254.0,99.0,'11111222,11111222,11144222' 